Tracking 29790 objects as of 12-Oct-2024
HD Live streaming from Space Station
objects crossing your sky now

SL-14 DEB

Track SL-14 DEB now!
10-day predictions


NORAD ID: 45286
Int'l Code: 1991-056Y
Perigee: 1,192.4 km
Apogee: 1,226.2 km
Inclination: 82.6 °
Period: 109.5 minutes
Semi major axis: 7580 km
RCS: Unknown
Launch date: August 15, 1991
Source: Commonwealth of Independent States (former USSR) (CIS)
Launch site: PLESETSK MISSILE AND SPACE COMPLEX (PKMTR)

Note: This is SATELLITE DEBRIS
Your satellite tracking list
Your tracking list is empty




NASA's NSSDC Master Catalog

Two Line Element Set (TLE):
1 45286U 91056Y   24285.86783587  .00000177  00000-0  43868-3 0  9996
2 45286  82.6298 228.9627 0022300 271.4715  88.3852 13.15447296223140
Source of the keplerian elements: AFSPC